SBRPSBSJ

Guest
Details From SBRP - Leite Lopes
To SBSJ - Sao Jose Dos Campos
Flight Number -
Tags Routegen
Created
Modified
Stats Distance 181 nm / 336 km
Max Altitude 0 ft / 0 m
Waypoints 4
Social Downloads 6
Likes 1
Share

Download

Looking for another format? Having issues loading an existing format? Contact us
Advertisement - Login to hide

Notes

None

Route

SBRP -20.99_-047.82 -22.91_-046.20 SBSJ

ID Type Via Altitude (ft/m) Position (lat/lon) Dist (leg/tot) Name
O SBRP APT - 0 / 0 -21.12508 / -47.77709 - / 0 nm
-20.99_-047.82 DME - 0 / 0 -20.98638 / -47.82137 8 / 8 nm
-22.91_-046.20 DME - 0 / 0 -22.91162 / -46.20449 146 / 155 nm
O SBSJ APT - 0 / 0 -23.21968 / -45.87193 26 / 181 nm

Altitude Profile

Advertisement - Login to hide

Weather


0- 5 10 15 20 25 30 35+ Temperature / °C

Clouds and Precipitation
Forecast for 2022-11-26 18:00 UTC. Updated 4 hours ago

Ground ~20,000 ft ~40,000 ft Winds

SBRP

Details ICAO SBRP (RAO)
Name Ribeirao Preto
Region Brazil
Timezone America/Sao_Paulo (UTC-2.0)
Stats Elevation 1,804 ft / 550 m (AMSL)
Location -21.134100° -47.774100°
Runways 1
Magnetic Variation 21.822° W

METAR

SBRP 261900Z 29007KT 240V330 9999 SCT045 31/11 Q1010

Decode

TAF

TAF SBRP 261600Z 2618/2706 00000KT 9999 SCT035 TX30/2618Z TN18/2706Z BECMG 2620/2622 13005KT CAVOK RMK PGH

Decode

Departure Runways

ID Width Length Bearing (true/mag) Surface Threshold Overrun Markings Lighting
18 148 ft / 45 m 6,896 ft / 2,102 m 163.36° / 185.18° ASPHALT 656 ft / 200 m 0 ft / 0 m PREC-APP EDGE THRESHOLD REIL-OMNI
36 148 ft / 45 m 6,896 ft / 2,102 m 343.36° / 5.18° ASPHALT 322 ft / 98 m 0 ft / 0 m PREC-APP EDGE THRESHOLD REIL-OMNI

SBSJ

Details ICAO SBSJ (SJK)
Name Sao Jose Dos Campos Intl
Region Brazil
Timezone America/Sao_Paulo (UTC-2.0)
Stats Elevation 2,123 ft / 647 m (AMSL)
Location -23.228200° -45.862700°
Runways 1
Magnetic Variation 22.299° W

METAR

SBSJ 261900Z 08006KT 9999 SCT035 BKN100 23/15 Q1015

Decode

TAF

TAF SBSJ 261630Z 2618/2706 16008KT 9999 SCT030 FEW040TCU TX26/2618Z TN16/2705Z TEMPO 2618/2622 21008KT 7000 TSRA BKN025 FEW040CB BECMG 2622/2624 BKN030 BECMG 2701/2703 20003KT 9999 SCT040 RMK PGO

Decode

Destination Runways

ID Width Length Bearing (true/mag) Surface Threshold Overrun Markings Lighting
15 148 ft / 45 m 8,800 ft / 2,682 m 135.07° / 157.37° ASPHALT 0 ft / 0 m 0 ft / 0 m PREC-APP EDGE THRESHOLD MALSF
33 148 ft / 45 m 8,800 ft / 2,682 m 315.07° / 337.37° ASPHALT 0 ft / 0 m 1,060 ft / 323 m PREC-APP EDGE THRESHOLD

Approach Navaids

Runway Type Ident Frequency Range Bearing (true/mag) Slope Elevation
15 MM MM - - 135.13° / 157.43 ° - 2,120 ft / 646 m (AMSL)
15 DME ISJ 110.30 MHz 18 nm / 33 km - - 2,120 ft / 646 m (AMSL)
15 GS ISJ 110.30 MHz 10 nm / 19 km 135.25° / 157.55 ° 3.00° 2,120 ft / 646 m (AMSL)
15 LOC-ILS ISJ 110.30 MHz 18 nm / 33 km 134.95° / 157.25 ° - 2,120 ft / 646 m (AMSL)
15 OM OM - - 135.13° / 157.43 ° - 2,120 ft / 646 m (AMSL)

Popular Alternatives